Location: Moscow
(55.7500°N, 37.5830°E)
Time: 11:47:22
(UTC+03:00)

Explorer 7 - Pass Details

Date: 06 December 2021
Orbit: 483 x 674 km, 50.3° (Epoch: 19 January)

Event Time Altitude Azimuth Distance (km) Brightness Sun altitude
Rises 06:44:55 0° 235° (SW) 2,812 - -15.2°
Exits shadow 06:46:36 - 229° (SW) 2,175 9.6 -14.9°
Reaches altitude 10° 06:47:26 10° 225° (SW) 1,876 9.3 -14.8°
Maximum altitude 06:51:10 30° 163° (SSE) 998 8.5 -14.3°
Drops below altitude 10° 06:54:44 10° 102° (ESE) 1,778 10.8 -13.9°
Sets 06:57:03 0° 91° (E) 2,638 11.8 -13.5°
